User: anonymous   Login
Location: Roanoke
(37.2710°N, 79.9420°W)
Time: 12:19:03
(UTC-04:00)
Language:

FENGYUN 3A - Orbit

View from above orbital plane
View from above orbital plane
View from above satellite
View from above satellite

Ground track
Ground track

The orbit data is extracted from the following two-line orbital elements,

1 32958U 08026A   16181.10832082 -.00000002  00000-0  18832-4 0  9993
2 32958  98.4509 220.6169 0008766 219.3659 140.6885 14.19622459419247
Epoch (UTC): 29 June 2016 02:35:58
Eccentricity: 0.0008766
inclination: 98.4509°
perigee height: 820 km
apogee height: 833 km
right ascension of ascending node: 220.6169°
argument of perigee: 219.3659°
revolutions per day: 14.19622459
mean anomaly at epoch: 140.6885°
orbit number at epoch: 41924

The dashed part of the orbit path shows where the satellite is in the earth's shadow,  

DLR